Regional Weather Roundup
Issued by NWS Wakefield, VA

Home | Current Version | Previous Version | Text Only | Print | Product List | Glossary On
Versions: 1 2 3 4 5 6 7 8 9 10 11 12 13 14 15 16 17 18 19 20 21 22 23 24 25 26 27 28 29 30 31 32 33 34 35 36 37 38 39 40 41 42 43 44 45 46 47 48 49 50
000
ASUS41 KAKQ 211314
RWRAKQ

REGIONAL WEATHER ROUNDUP
NATIONAL WEATHER SERVICE WAKEFIELD VA
900 AM EDT TUE APR 21 2015

Note: "fair" indicates few or no clouds below 12,000 feet with no
significant weather and/or obstructions to visibility. * = Denotes
station may not report precipitation (e.g., rain,snow,etc.),
thunder or fog.

VAZ042-051-052>054-056-211400-
NORTHERN VIRGINIA

CITY           SKY/WX    TMP DP  RH WIND       PRES   REMARKS
WASH NATIONAL  MOSUNNY   61  36  39 W17G24    29.78R
DULLES         MOSUNNY   56  32  40 W20G28    29.77F
FORT BELVOIR   SUNNY     59  33  38 NW17G30   29.78R
QUANTICO       MOSUNNY   60  36  40 NW14G21   29.80R
FREDERICKSBRG* SUNNY     60  37  41 W9        29.79R
STAFFORD*      SUNNY     58  34  40 W6        29.83R
WARRENTON      SUNNY     60  38  44 W7        29.79R
CULPEPER*      SUNNY     61  36  39 W3        29.80R
MANASSAS*      SUNNY     59  36  41 W12       29.79
LEESBURG*      SUNNY     57  34  41 W12G20    29.78F
WINCHESTER     CLOUDY    55  27  33 W15       29.78S
FRONT ROYAL*   FAIR      54  32  43 W9        29.78S
LURAY*         FAIR      55  32  41 W23G32    29.79S
$$

VAZ048-049-060>072-079>083-211400-
CENTRAL AND SOUTH CENTRAL VIRGINIA

CITY           SKY/WX    TMP DP  RH WIND       PRES   REMARKS
RICHMOND       MOSUNNY   63  40  42 NW13      29.81R
CHESTERFIELD*  NOT AVBL
PETERSBURG*    SUNNY     63  41  44 W7        29.83R
HANOVER        SUNNY     60  36  40 W10       29.82R
TAPPAHANNOCK*  SUNNY     62  35  36 W5        29.80R
QUINTON*       FAIR      61  39  44 NW10G20   29.81R
CHARLOTTSVILLE SUNNY     57  33  40 VRB3      29.81R
GORDONSVILLE*  FAIR      58  35  42 SW5       29.80R
ORANGE*        SUNNY     59  34  38 SW10      29.81R
LOUISA*        SUNNY     61  37  41 W8        29.79S
BUMPASS*       FAIR      59  35  41 NW9       29.80R
FARMVILLE*     SUNNY     61  39  45 W6        29.83R
CREWE*         FAIR      60  38  43 NW6       29.83R
FORT PICKETT*  FAIR      59  41  51 NW8       29.83R
CHASE CITY*    FAIR      60  41  50 NW8G18    29.86R
CLARKSVILLE*   FAIR      57  43  58 NW7       29.86R
SOUTH HILL*    SUNNY     58  42  55 W5        29.91R
LAWRENCEVILLE* FAIR      58  45  62 W6        29.84R
EMPORIA*       SUNNY     59  45  58 W8        29.85R
$$

VAZ088>098-211400-
SOUTHEAST VIRGINIA

CITY           SKY/WX    TMP DP  RH WIND       PRES   REMARKS
NORFOLK        SUNNY     65  52  62 NW8       29.78R
VIRGINIA BEACH MOSUNNY   68  53  58 NW13G22   29.77R
NORFOLK NAVAL  MOSUNNY   68  53  58 W13G21    29.80R
WEST POINT*    SUNNY     65  33  30 NW10G16   29.81R
SALUDA*        FAIR      61  47  59 NW12G22   29.79R
NEWPORT NEWS   PTSUNNY   68  46  45 NW9G21    29.79R
LANGLEY AFB    MOSUNNY   65  49  55 NW18G26   29.77R
FORT EUSTIS    SUNNY     64  46  51 NW13G24   29.77R
WILLIAMSBURG*  SUNNY     64  46  52 NW20G25   29.80R
HR EXEC AP*    FAIR      64  50  59 W12G18    29.81R
FRANKLIN*      SUNNY    N/A N/A N/A W10G17    29.82R
WAKEFIELD      SUNNY     63  47  55 NW9G17    29.81R
$$

VAZ020-022-025-037-045-211400-
WEST CENTRAL AND SOUTHWEST VIRGINIA

CITY           SKY/WX    TMP DP  RH WIND       PRES   REMARKS
STAUNTON*      SUNNY     54  30  39 W12       29.83R
WAYNESBORO*    FAIR      51  31  48 W8G16     29.82R
HOT SPRINGS VA MOSUNNY   39  29  66 W24G38    29.77S
LYNCHBURG      SUNNY     55  32  41 VRB5G17   29.85R
DANVILLE       SUNNY     59  41  51 W7        29.87R
SOUTH BOSTON*  FAIR      58  38  47 NW12G18   29.87R
MARTINSVILLE   SUNNY     55  39  54 NW8       29.91R
ROANOKE        MOSUNNY   53  31  42 NW24G31   29.87R
BLACKSBURG     SUNNY     47  28  48 W15G22    29.89S
DUBLIN*        SUNNY     49  29  45 W8G17     29.90R
MARION*        SUNNY     47  27  45 W15G30    29.90R
HILLSVILLE*    SUNNY     45  29  53 NW10G17   29.88R
RICHLANDS*     FAIR      45  31  59 W8        29.90S
WISE*          SUNNY     46  28  49 W8        29.92S
ABINGDON*      MOSUNNY   50  33  51 W7        29.92S
$$

MDZ021>025-VAZ099-100-211400-
SOUTHERN MARYLAND AND THE DELMARVA PENINSULA

CITY           SKY/WX    TMP DP  RH WIND       PRES   REMARKS
PATUXENT RIVER PTSUNNY   60  40  47 NW17G24   29.77R
BAY BRIDGE APT   N/A    N/A N/A N/A W15G22    29.76R
LEONARDTOWN    PTSUNNY   59  37  44 NW9G18    29.79R
DOVER          MOSUNNY   60  46  61 W16G22    29.68S
GEORGETOWN     CLOUDY    61  43  51 W12G18    29.74R
EASTON         NOT AVBL
CAMBRIDGE      MOSUNNY   61  39  44 NW13G24   29.76R
SALISBURY      PTSUNNY   60  41  49 NW16G30   29.75R
OCEAN CITY     MOSUNNY   62  46  55 NW16G26   29.73R
WALLOPS ISLAND CLOUDY    61  50  67 NW13G24   29.76R
ACCOMACK*      CLOUDY    61  43  51 NW15G24   29.78R
$$

NCZ012>017-030>032-211400-
NORTH CENTRAL AND EASTERN NORTH CAROLINA

CITY           SKY/WX    TMP DP  RH WIND       PRES   REMARKS
ROANOKE RAPIDS FAIR      59  45  58 W7        29.85R
RALEIGH        MOSUNNY   59  48  67 VRB3      29.88R
ELIZABETH CITY SUNNY     64  51  62 W18G28    29.80R
AHOSKIE*       SUNNY     60  46  61 W3        29.84R
EDENTON*       SUNNY     64  52  65 NW13G20   29.82R
CURRITUCK*     SUNNY     64  52  65 W15G22    29.79R
KILL DEVIL HLS SUNNY     66  55  66 W15G22    29.78R
MANTEO         SUNNY     66  54  66 NW13G22   29.80R
CAPE HATTERAS  MOSUNNY   67  61  81 W14G22    29.80R
TARBORO*       FAIR      62  49  62 NW10      29.86R
GOLDSBORO      SUNNY     64  46  51 NW13      29.84R
WASHINGTON     SUNNY     63  48  58 NW15G21   29.84R
GREENVILLE     SUNNY     63  46  55 N12       29.88R
NEW BERN       PTSUNNY   66  47  50 NW15G24   29.85R
WILMINGTON     SUNNY     67  56  67 NW18      29.85R
$$

VAZ048-211400-
ELSEWHERE

CITY           SKY/WX    TMP DP  RH WIND       PRES   REMARKS
HARRISBURG PA  PTSUNNY   55  41  59 W8        29.71S
BALTIMORE      MOSUNNY   57  36  45 W16G29    29.75R
ANNAPOLIS      MOSUNNY   59  35  40 NW15G26   29.75R
ANDREWS AFB    SUNNY     58  37  45 W16       29.76R
PHILADELPHIA   PTSUNNY   58  43  57 W14G21    29.70R
HENDERSON NC   SUNNY     58  42  55 W5        29.87R
GREENSBORO     MOSUNNY   57  39  51 NW8       29.88R
ROCKY MOUNT    SUNNY     62  49  62 NW7       29.86R
$$

VAZ100-211400-
MARINE

STATION/POSITION TIME  TEMP    WIND        PRES    WAVE   SWELL
                       AIR SEA DIR/SP/G            HT/PER HT/PER
                 (UTC) (F)     (DEG/KT/KT) (MB)    (FT/S) (FT/S)
BRANDYWINE LGT   1200   57 52  300/ 25/ 27 1005.7R
CAPE MAY NJ      1200   56 55  290/ 15/ 19 1005.1R
LEWES DE         1200   59 50  300/ 21/ 25 1005.7R
15NM E FENWICK I 1250   55 47              1005.6R   6/ 7
OCEAN-CITY-INLET 1200   61 55  320/ 18/ 27 1005.6R
WACHAPREAGUE VA  1200   62 64  320/  5/ 19 1007.3R
THOMAS POINT MD  1300   58 53  290/ 27/ 31 1007.6S
GOOSES REEF MD   1300   58 57  320/ 16/ 17   N/A     1/ 3
COVE POINT MD    1200   57     340/ 16/ 19 1007.4R
SOLOMONS ISLAND  1200      57                N/A
BISHOPS HEAD MD  1200   60 62  320/ 19/ 26 1007.1R
PINEY POINT MD   1206          340/ 16/ 17   N/A
CAMBRIDGE MD     1200   59 60  300/ 12/ 17 1007.2R
LEWISETTA VA     1200   59 57              1007.7R
RAPPAHANNOCK LGT 1200          340/ 23/ 26 1007.8R
STINGRAY PT      1300   61 58  330/ 14/ 17 1009.9R   2/ 2
YORK RVR RNG VA  1200   64     320/ 18/ 23 1007.1R
YORKTOWN VA      1200   64 61  310/ 15/ 17 1007.4R
DOMINION TERM VA 1200   63     290/ 17/ 20 1007.5R
KIPTOPEKE VA     1200      63  310/ 13/ 16   N/A
CHES BAY BRIDGE  1200   62 57  260/ 14/ 15 1007.1R
CAPE HENRY VA    1200   63     260/ 13/ 18 1006.1R
CHESAPEAKE LGHT  1200   61     280/ 25/ 25 1007.1R
WILLOUBY STN VA  1218   63     290/ 16/ 18 1008.5R
S CRANEY ISL VA  1200          280/ 13/ 19 1007.7R
CAPE HENRY BUOY  1228      54                N/A     4/ 8   2/11
1ST LANDING BUOY 1300   61     320/ 14/ 17 1008.1R   2/ 4
OFFSHORE WE BUOY 1211      50                N/A     4/ 8   3/ 8
64NM E OF VA BCH 1250   58 56  270/ 14/ 16 1006.7R   5/ 7   5/ 7
DUCK PIER NC     1200   64 46  280/ 16/ 19 1006.9R
44056 DUCK FRF   1211      50                N/A     4/ 8   2/13
OREGON INLET NC  1200   67 67  280/ 13/ 19 1008.0R
HATTERAS NC      1200   68 68  270/ 18/ 21 1007.9R
DIAMOND SHLS NC  1250   69 74  270/ 21/ 23 1008.5R   7/ 7   3/ 8
CAPE LOOKOUT NC  1300   66     260/ 13/ 15 1009.5R
$$


USA.gov is the U.S. government's official web portal to all federal, state and local government web resources and services.